This is the latest recevied weather packets stored in our database for station/object KN6ETB-1. If no packets are shown the sender has not sent any weather packets the latest 10 day(s).
| Time | Temp. | Humidity | Pressure | Rain* | Wind** | Luminosity | Snow |
|---|---|---|---|---|---|---|---|
| 1777674972 | 26.11° C | 52% | 1009.5 hPa | 0 mm | - | 511 W/m² | - |
| 1777674669 | 25.56° C | 55% | 1009.6 hPa | 0 mm | - | 493 W/m² | - |
| 1777674383 | 25.56° C | 55% | 1009.8 hPa | 0 mm | - | 471 W/m² | - |
| 1777674062 | 25.56° C | 55% | 1009.8 hPa | 0 mm | - | 477 W/m² | - |
| 1777673758 | 25.56° C | 55% | 1010 hPa | 0 mm | - | 493 W/m² | - |
| 1777673456 | 25.56° C | 54% | 1010.1 hPa | 0 mm | - | 522 W/m² | - |
| 1777673153 | 25.56° C | 53% | 1009.7 hPa | 0 mm | - | 503 W/m² | - |
| 1777672850 | 26.11° C | 52% | 1010 hPa | 0 mm | - | 548 W/m² | - |
| 1777672546 | 25.56° C | 54% | 1009.9 hPa | 0 mm | - | 521 W/m² | - |
| 1777672241 | 25.56° C | 54% | 1010.1 hPa | 0 mm | - | 527 W/m² | - |
| 1777671937 | 25.56° C | 55% | 1010.1 hPa | 0 mm | - | 515 W/m² | - |
| 1777671633 | 26.11° C | 52% | 1010.4 hPa | 0 mm | - | 496 W/m² | - |
| 1777671330 | 25.56° C | 53% | 1010.2 hPa | 0 mm | - | 508 W/m² | - |
| 1777671026 | 25.56° C | 52% | 1010.3 hPa | 0 mm | - | 547 W/m² | - |
| 1777670722 | 25.56° C | 53% | 1010.4 hPa | 0 mm | - | 518 W/m² | - |
| 1777670420 | 25.56° C | 52% | 1010.5 hPa | 0 mm | - | 347 W/m² | - |
| 1777670116 | 25° C | 54% | 1010.7 hPa | 0 mm | - | 290 W/m² | - |
| 1777669815 | 25° C | 53% | 1010.4 hPa | 0 mm | - | 524 W/m² | - |
| 1777669510 | 25° C | 54% | 1010.6 hPa | 0 mm | - | 501 W/m² | - |
| 1777669207 | 25° C | 54% | 1010.7 hPa | 0 mm | - | 370 W/m² | - |
| 1777668904 | 25° C | 53% | 1010.7 hPa | 0 mm | - | 617 W/m² | - |
| 1777668602 | 24.44° C | 55% | 1010.7 hPa | 0 mm | - | 551 W/m² | - |
| 1777668297 | 25° C | 53% | 1010.7 hPa | 0 mm | - | 507 W/m² | - |
| 1777667994 | 24.44° C | 52% | 1010.5 hPa | 0 mm | - | 536 W/m² | - |
| 1777667690 | 24.44° C | 52% | 1010.7 hPa | 0 mm | - | 612 W/m² | - |
* Rain latest hour (hover to see other rain measurements)
** Current wind speed in m/s (hover to see current wind gust speed)